Regional Weather Roundup
Issued by NWS

Home | Current Version | Previous Version | Graphics & Text | Print | Product List | Glossary On
Versions: 1 2 3 4 5 6 7 8 9 10 11 12 13 14 15 16 17 18 19 20 21 22 23 24 25 26 27 28 29 30 31 32 33 34 35 36 37 38 39 40 41 42 43 44 45 46 47 48 49 50
000
ASUS45 KBOU 220307
RWRCO

WEATHER ROUNDUP FOR COLORADO
NATIONAL WEATHER SERVICE DENVER/BOULDER CO
900 PM MDT THU AUG 21 2014

NOTE: "FAIR" INDICATES FEW OR NO CLOUDS BELOW 12000 FEET WITH NO
SIGNIFICANT WEATHER AND/OR OBSTRUCTIONS TO VISIBILITY.

COZ001>005-013-030-031-220400-
...NORTHWEST COLORADO...

CITY           SKY/WX    TMP DP  RH WIND       PRES   REMARKS
CRAIG          MOCLDY    59  47  64 S6        30.23R
HAYDEN         MOCLDY    63  43  48 CALM      30.24R
MEEKER         MOCLDY    65  46  50 NE9       30.21R
MOUNT WERNER   NOT AVBL
STEAMBOAT SPGS MOCLDY    60  46  58 NW3       30.25R
WALDEN         CLOUDY    52  43  71 N15G21    30.34R
$$

COZ006>008-011-220400-
...WEST CENTRAL VALLEYS...

CITY           SKY/WX    TMP DP  RH WIND       PRES   REMARKS
GRAND JUNCTION CLOUDY    69  51  52 CALM      30.09R
MONTROSE       CLOUDY    72  48  42 S5        30.18R
EAGLE          CLOUDY    66  46  48 E3        30.25R
RIFLE          MOCLDY    71  41  33 SE3       30.14R
DELTA          NOT AVBL
NUCLA          CLOUDY    72  37  28 N5        30.21R
$$

COZ017>023-064>068-220400-
...SOUTHWEST COLORADO...

CITY           SKY/WX    TMP DP  RH WIND       PRES   REMARKS
DURANGO        CLOUDY    70  40  33 NW8       30.21R
CORTEZ         PTCLDY    68  44  42 SE5       30.18R
PAGOSA SPRINGS CLOUDY    67  42  40 W6        30.28R
TELLURIDE      CLOUDY    55  46  71 SE6       30.40R
WOLF CREEK PAS NOT AVBL
$$

COZ009-010-012-014-032>034-037-058>063-220400-
...CENTRAL COLORADO...

CITY           SKY/WX    TMP DP  RH WIND       PRES   REMARKS
ASPEN          CLOUDY    62  45  53 VRB6      30.31R
BUENA VISTA    CLOUDY    65  38  37 NW14      30.30R
COPPER MTN     CLOUDY    50  32  50 W12       30.62R
BERTHOUD PASS  LGT RAIN  41  39  93 MISG      30.66R
COTTONWOOD PAS CLOUDY    61  30  31 W13G18    30.44R
GUNNISON       CLOUDY    64  37  36 CALM      30.32R
KREMMLING      MOCLDY    61  37  41 SW8       30.29R
LEADVILLE      CLOUDY    52  38  58 N7        30.45R
SALIDA         CLOUDY    71  33  24 W8        30.33R
SUNLIGHT       CLOUDY    50  36  57 CALM      30.53R
WILKERSON PASS CLOUDY    50  37  62 NE10      30.58R
$$

COZ069>075-220400-
...SAN LUIS VALLEY/SANGRE DE CRISTO MOUNTAINS...

CITY           SKY/WX    TMP DP  RH WIND       PRES   REMARKS
ALAMOSA        CLOUDY    69  37  30 N8        30.23R
LA VETA PASS   NOT AVBL
SAGUACHE       CLOUDY    66  37  34 NW13      30.28S
$$

COZ035-036-038>040-220400-
...NORTHERN COLORADO FRONT RANGE...

CITY           SKY/WX    TMP DP  RH WIND       PRES   REMARKS
DENVER INTL AP MOCLDY    64  56  75 E9        30.14F
DMNS CITY PARK   N/A     68  52  55 E3        30.14R
AURORA         MOCLDY    63  53  68 E7        30.17R
FRONT RANGE AP NOT AVBL
ERIE MUNI ARPT CLOUDY    72  47  41 SE3       30.14R
BOULDER MUN AP DRIZZLE   66  54  63 CALM      30.15R
CENTENNIAL     MOCLDY    67  49  52 CALM      30.17R
BROOMFIELD     MOCLDY    72  45  37 CALM      30.18R
FORT COLLINS   MOCLDY    64  55  72 NW6       30.13R
LONGMONT       MOCLDY    68  57  68 S6        30.15R
$$

COZ041-046-047-076>085-087-088-220400-
...PIKES PEAK/PALMER DIVIDE AND SOUTHERN FOOTHILLS...

CITY           SKY/WX    TMP DP  RH WIND       PRES   REMARKS
COLO. SPRINGS  MOCLDY    68  46  45 NW7       30.17R
A. F. ACADEMY  MOCLDY    66  49  55 N10       30.22R
ELLICOTT       MOCLDY    70  47  43 SE7       30.14R
FALCON         MOCLDY    66  50  57 N13       30.24R
FORT CARSON    NOT AVBL
LIMON          MOCLDY    70  48  45 E6        30.11R
MONUMENT HILL  MOCLDY    59  50  72 CALM      30.25R
TRINIDAD       MOCLDY    74  49  41 E9        30.11R
$$

COZ042>045-048>051-090-091-220400-
...NORTHEAST COLORADO...

CITY           SKY/WX    TMP DP  RH WIND       PRES   REMARKS
GREELEY ARPT   MOCLDY    70  52  52 N10       30.10S
AKRON          CLOUDY    72  54  53 N3        30.07S
BURLINGTON     CLEAR     75  48  38 E5        30.03R
WRAY             N/A     77  49  38 CALM      30.00R
STERLING       PTCLDY    73  55  53 NE5       30.01S
HOLYOKE        NOT AVBL
FORT MORGAN    CLOUDY    70  56  61 W21G32    30.13R
$$

COZ086-089-092>099-220400-
...SOUTHEAST COLORADO...

CITY           SKY/WX    TMP DP  RH WIND       PRES   REMARKS
PUEBLO         PTCLDY    79  50  36 E7        30.02R
LA JUNTA       MOCLDY    80  55  42 E8        30.00R
LAMAR          PTCLDY    80  54  40 SE8       29.95R
SPRINGFIELD      N/A     76  57  51 S7        30.03R
$$



USA.gov is the U.S. government's official web portal to all federal, state and local government web resources and services.